This demonstration page uses our WeatherBlox Daily Observations layout. Learn more.

Left ArrowRight Arrow

Hourly Observations for December 1, 2021

Temp ( °F °C ) Dew Point ( °F °C ) Humidity (%) Winds ( mph kmh ) Pressure ( in mb ) Visibility ( mi km ) Precip ( " mm )
12:56 am 00:56 Clear 49 9.4 35 1.7 59 59 W 9 15 29.94 1014 10 16 0.00 0.00
1:56 am 01:56 Cloudy 48 8.9 35 1.7 61 61 NW 12 19 29.96 1014 10 16 0.00 0.00
2:56 am 02:56 Clear 45 7.2 33 0.6 63 63 NW 12 19 29.99 1016 10 16 0.00 0.00
3:56 am 03:56 Clear 39 3.9 31 -0.6 73 73 WNW 10 17 29.99 1016 10 16 0.00 0.00
4:56 am 04:56 Clear 37 2.8 29 -1.7 73 73 WNW 8 13 30.01 1016 10 16 0.00 0.00
5:56 am 05:56 Clear 39 3.9 28 -2.2 65 65 W 6 9 30.02 1017 10 16 0.00 0.00
6:56 am 06:56 Clear 35 1.7 27 -2.8 72 72 W 5 7 30.02 1017 10 16 0.00 0.00
7:56 am 07:56 Sunny 34 1.1 27 -2.8 76 76 WSW 6 9 30.03 1017 10 16 0.00 0.00
8:56 am 08:56 Sunny 41 5 30 -1.1 65 65 WSW 5 7 30.03 1017 10 16 0.00 0.00
9:56 am 09:56 Sunny 49 9.4 32 0 52 52 SW 7 11 30.02 1017 10 16 0.00 0.00
10:56 am 10:56 Sunny 53 11.7 30 -1.1 41 41 WSW 15 24 30.01 1016 10 16 0.00 0.00
11:56 am 11:56 Sunny 58 14.4 31 -0.6 36 36 SW 12 19 29.97 1015 10 16 0.00 0.00
12:56 pm 12:56 Sunny 62 16.7 28 -2.2 28 28 WSW 17 28 29.93 1014 10 16 0.00 0.00
1:56 pm 13:56 Sunny 64 17.8 28 -2.2 26 26 WSW 18 30 29.91 1013 10 16 0.00 0.00
2:56 pm 14:56 Sunny 64 17.8 29 -1.7 27 27 WSW 10 17 29.91 1013 10 16 0.00 0.00
3:56 pm 15:56 Sunny 66 18.9 30 -1.1 26 26 W 13 20 29.91 1013 10 16 0.00 0.00
4:56 pm 16:56 Sunny 63 17.2 30 -1.1 29 29 W 7 11 29.94 1014 10 16 0.00 0.00
5:56 pm 17:56 Clear 56 13.3 30 -1.1 37 37 SW 8 13 29.95 1014 10 16 0.00 0.00
6:56 pm 18:56 Clear 56 13.3 29 -1.7 36 36 WSW 8 13 29.95 1014 10 16 0.00 0.00
7:56 pm 19:56 Clear 56 13.3 30 -1.1 37 37 WSW 5 7 29.96 1014 10 16 0.00 0.00
8:56 pm 20:56 Clear 52 11.1 30 -1.1 43 43 WSW 6 9 29.95 1014 10 16 0.00 0.00
9:56 pm 21:56 Clear 50 10 31 -0.6 48 48 SW 8 13 29.93 1014 10 16 0.00 0.00
10:56 pm 22:56 Clear 49 9.4 31 -0.6 50 50 WSW 8 13 29.94 1014 10 16 0.00 0.00
11:56 pm 23:56 Clear 50 10 31 -0.6 48 48 WSW 7 11 29.94 1014 10 16 0.00 0.00

Powered by AerisWeather